AP893 Weather Reports


time (UTC)temp
F
wind
direction
speed
knots
gust
knots
rain 1hr
in
rain 24hr
in
rain mn
in
humidity
%
barometer
mb
20260508211010 79 1 5.2 11.3 0.00 0.00 0.00 29 1020.5
20260508204010 79 342 5.2 10.4 0.00 0.00 0.00 30 1020.5
20260508202010 78 350 5.2 10.4 0.00 0.00 0.00 37 1020.5
20260508201011 78 341 6.1 12.2 0.00 0.00 0.00 38 1020.5
20260508200010 78 0 2.6 11.3 0.00 0.00 0.00 38 1020.5
20260508195010 78 338 2.6 7.8 0.00 0.00 0.00 41 1020.5
20260508194009 77 354 2.6 10.4 0.00 0.00 0.00 45 1020.5
20260508192009 77 300 6.1 10.4 0.00 0.00 0.00 44 1020.7
20260508191010 77 11 4.3 11.3 0.00 0.00 0.00 44 1020.6
20260508185009 78 11 0.0 7.8 0.00 0.00 0.00 42 1020.8
20260508184009 78 302 2.6 7.8 0.00 0.00 0.00 41 1020.8
20260508182009 78 322 0.9 6.1 0.00 0.00 0.00 41 1020.8
20260508180009 76 311 2.6 8.7 0.00 0.00 0.00 43 1020.8
20260508175009 76 0 0.9 8.7 0.00 0.00 0.00 43 1020.8
20260508174009 76 2 1.7 7.8 0.00 0.00 0.00 41 1020.7
20260508173009 77 334 4.3 7.8 0.00 0.00 0.00 39 1020.7
20260508172009 76 358 0.9 6.1 0.00 0.00 0.00 37 1020.6
20260508171009 77 340 1.7 7.0 0.00 0.00 0.00 37 1020.7
20260508170009 77 99 0.0 0.0 0.00 0.00 0.00 34 1020.6
20260508165009 76 99 0.0 1.7 0.00 0.00 0.00 37 1020.6
20260508164009 74 160 0.0 0.0 0.00 0.00 0.00 42 1020.5
20260508162009 70 34 0.9 6.1 0.00 0.00 0.00 45 1020.5
20260508161010 69 203 2.6 6.1 0.00 0.00 0.00 46 1020.5
20260508160010 69 123 1.7 6.1 0.00 0.00 0.00 48 1020.5
20260508155009 68 150 2.6 5.2 0.00 0.00 0.00 50 1020.4
20260508154011 67 140 0.9 5.2 0.00 0.00 0.00 55 1020.5
20260508153010 66 136 0.9 5.2 0.00 0.00 0.00 58 1020.4
20260508152009 64 138 0.0 6.1 0.00 0.00 0.00 66 1020.4
20260508151009 61 131 0.9 5.2 0.00 0.00 0.00 74 1020.3
20260508150012 58 154 0.9 4.3 0.00 0.00 0.00 85 1020.2
20260508145010 57 117 1.7 5.2 0.00 0.00 0.00 92 1020.2
20260508144010 55 100 0.0 4.3 0.00 0.00 0.00 100 1020.1
20260508142010 53 110 0.0 6.1 0.00 0.00 0.00 100 1020.1
20260508141010 53 143 0.0 5.2 0.00 0.00 0.00 100 1020.0
20260508140010 52 123 0.9 5.2 0.00 0.00 0.00 100 1020.0
20260508135010 51 162 0.0 0.0 0.00 0.00 0.00 100 1019.9
20260508134010 51 162 0.0 0.0 0.00 0.00 0.00 100 1019.7
20260508133010 51 162 0.0 0.0 0.00 0.00 0.00 100 1019.6
20260508132010 51 162 0.0 0.0 0.00 0.00 0.00 100 1019.6
20260508130009 51 162 0.0 0.0 0.00 0.00 0.00 100 1019.7
20260508125010 51 162 0.0 0.0 0.00 0.00 0.00 100 1019.6
20260508124010 51 162 0.0 0.0 0.00 0.00 0.00 100 1019.6
20260508123010 52 162 0.0 0.0 0.00 0.00 0.00 100 1019.6
20260508122010 52 162 0.0 0.0 0.00 0.00 0.00 100 1019.6
20260508121010 52 162 0.0 0.0 0.00 0.00 0.00 100 1019.5
20260508120011 51 162 0.0 0.0 0.00 0.00 0.00 100 1019.5
20260508115010 52 162 0.0 0.0 0.00 0.00 0.00 100 1019.6
20260508114010 52 162 0.0 0.0 0.00 0.00 0.00 100 1019.7
20260508113009 52 162 0.0 0.0 0.00 0.00 0.00 100 1019.6
20260508112009 52 162 0.0 0.0 0.00 0.00 0.00 100 1019.6
20260508111010 52 162 0.0 0.0 0.00 0.00 0.00 100 1019.5
20260508110010 52 162 0.0 0.0 0.00 0.00 0.00 100 1019.6
20260508105009 53 162 0.0 0.0 0.00 0.00 0.00 100 1019.6
20260508104009 53 162 0.0 0.0 0.00 0.00 0.00 100 1019.6
20260508102009 53 162 0.0 0.0 0.00 0.00 0.00 100 1019.5
20260508101010 53 162 0.0 0.0 0.00 0.00 0.00 100 1019.5
20260508100010 53 162 0.0 0.0 0.00 0.00 0.00 100 1019.5
20260508095010 53 162 0.0 0.0 0.00 0.00 0.00 100 1019.5
20260508094010 53 162 0.0 0.0 0.00 0.00 0.00 100 1019.5
20260508093010 53 162 0.0 0.0 0.00 0.00 0.00 100 1019.4
20260508091009 54 162 0.0 0.0 0.00 0.00 0.00 100 1019.6
20260508090009 54 162 0.0 0.0 0.00 0.00 0.00 100 1019.5
20260508084010 54 162 0.0 0.0 0.00 0.00 0.00 100 1019.5
20260508083010 54 162 0.0 0.0 0.00 0.00 0.00 100 1019.6
20260508082009 54 162 0.0 0.0 0.00 0.00 0.00 100 1019.6
20260508081009 54 162 0.0 0.0 0.00 0.00 0.00 100 1019.9
20260508075009 54 162 0.0 0.0 0.00 0.00 0.00 100 1019.9
20260508074010 55 162 0.0 0.0 0.00 0.00 0.00 100 1019.9
20260508073010 55 162 0.0 0.0 0.00 0.00 0.00 100 1020.1
20260508072009 55 161 1.7 4.3 0.00 0.00 0.00 100 1020.1
20260508071009 55 102 0.0 0.0 0.00 0.00 0.00 100 1020.1
20260508070009 55 102 0.0 0.0 0.00 0.00 0.00 100 1020.1
20260508064009 56 102 0.0 0.0 0.00 0.00 0.00 100 1020.1
20260508062009 56 258 0.0 0.0 0.00 0.00 0.00 100 1020.2
20260508061010 57 258 0.0 0.0 0.00 0.00 0.00 100 1020.3
20260508055010 57 258 0.0 1.7 0.00 0.00 0.00 97 1020.4
20260508054009 58 258 0.0 0.0 0.00 0.00 0.00 95 1020.5
20260508053010 58 258 0.0 0.0 0.00 0.00 0.00 94 1020.4
20260508052009 59 258 0.0 0.0 0.00 0.00 0.00 94 1020.4
20260508051009 59 258 0.0 0.0 0.00 0.00 0.00 93 1020.5
20260508045009 61 258 0.0 0.0 0.00 0.00 0.00 90 1020.5
20260508044009 61 258 0.0 0.0 0.00 0.00 0.00 89 1020.5
20260508043009 62 258 0.0 0.0 0.00 0.00 0.00 87 1020.5
20260508042009 63 258 0.0 0.0 0.00 0.00 0.00 86 1020.4
20260508041010 64 258 0.0 0.0 0.00 0.00 0.00 84 1020.3
20260508040009 64 258 0.0 0.0 0.00 0.00 0.00 82 1020.3
20260508035009 65 258 0.0 0.0 0.00 0.00 0.00 81 1020.2
20260508033009 67 258 0.0 0.0 0.00 0.00 0.00 76 1020.0
20260508032009 68 258 0.0 0.0 0.00 0.00 0.00 76 1020.0
20260508030009 70 258 0.0 0.0 0.00 0.00 0.00 72 1019.9
20260508025009 71 258 0.0 0.0 0.00 0.00 0.00 70 1019.9
20260508024010 72 258 0.0 0.0 0.00 0.00 0.00 67 1019.7
20260508023010 73 287 0.0 4.3 0.00 0.00 0.00 64 1019.6
20260508021010 74 322 0.0 5.2 0.00 0.00 0.00 59 1019.5
20260508020010 75 0 0.0 6.1 0.00 0.00 0.00 58 1019.5
20260508015010 75 282 0.9 7.0 0.00 0.00 0.00 55 1019.5
20260508014011 76 20 0.9 5.2 0.00 0.00 0.00 53 1019.5
20260508013010 76 343 0.9 6.1 0.00 0.00 0.00 50 1019.6
20260508011010 77 320 0.0 6.1 0.00 0.00 0.00 48 1019.4
20260508010009 78 0 4.3 7.8 0.00 0.00 0.00 45 1019.5
20260508004010 78 9 2.6 6.1 0.00 0.00 0.00 42 1019.6
20260508003011 78 3 2.6 6.1 0.00 0.00 0.00 43 1019.7
20260508002010 78 19 0.9 6.1 0.00 0.00 0.00 42 1019.6
20260508001009 79 322 1.7 8.7 0.00 0.00 0.00 42 1019.5
20260507233010 79 11 2.6 6.1 0.00 0.00 0.00 41 1019.7
20260507232009 79 332 2.6 7.8 0.00 0.00 0.00 42 1019.9
20260507231010 79 2 5.2 11.3 0.00 0.00 0.00 42 1020.0
20260507230010 79 310 4.3 7.8 0.00 0.00 0.00 42 1020.1
20260507225009 79 25 2.6 8.7 0.00 0.00 0.00 42 1020.1
20260507224010 80 1 0.9 7.0 0.00 0.00 0.00 44 1020.3
20260507223010 80 282 0.0 7.0 0.00 0.00 0.00 43 1020.3
20260507222010 80 337 1.7 8.7 0.00 0.00 0.00 43 1020.4
20260507221010 79 3 0.0 7.0 0.00 0.00 0.00 45 1020.5
20260507220010 78 349 1.7 8.7 0.00 0.00 0.00 46 1020.5
20260507215009 77 285 2.6 10.4 0.00 0.00 0.00 47 1020.6
20260507213010 78 281 0.0 7.0 0.00 0.00 0.00 46 1020.6
20260507212009 78 326 0.9 6.1 0.00 0.00 0.00 46 1020.8